Zurück zum Katalog

STARLINK-4627

AktivKommunikationVLEO
NORAD 53711·PAYLOAD·🇺🇸 United States

Gestartet Sep 5, 2022 von Cape Canaveral Space Force Station

Loading…

Nächste Überflüge (nächste 24 Stunden)

TLE

AktuellSource: CelesTrak SupGP

Epoche: Sep 15, 2026, 02:00 UTC

1 53711C 22107M   26258.08381944  .00027557  00000+0  81419-3 0  2588
2 53711  53.1573 103.2498 0001275  81.2021 149.1750 15.34375690    10

Verfolge STARLINK-4627 in Echtzeit mit AllMySat

Download on the App Store